Tracking 35274 objects as of 12-Sep-2026
HD Live streaming from Space Station
objects crossing your sky now

STARLINK-31582

Track STARLINK-31582 now!
10-day predictions
STARLINK-31582 is classified as:


NORAD ID: 59545
Int'l Code: 2024-074M
Launch date: April 18, 2024
Source: United States (US)
Launch site: AIR FORCE EASTERN TEST RANGE (AFETR)
Your satellite tracking list
Your tracking list is empty




NASA's NSSDC Master Catalog

Two Line Element Set (TLE):
1 59545U 24074M   26254.40665493  .00001388  00000-0  59954-4 0  9997
2 59545  43.0038  15.0040 0001249 263.5525  96.5184 15.27576678134412
Source of the keplerian elements: AFSPC